A6CTL OTHH-OTHH

Flight info

Callsign A6CTL
Flight time 0h 4m
Altitude 1000
Route VFR
Aircraft C172/L-V/N

Departure

Time 2026-05-06 18:47
Airport Hamad International Airport (OTHH)

Arrival

Time 2026-05-06 18:52
Airport Hamad International Airport (OTHH)
Time Latitude Longitude Altitude Speed Heading
2026-05-06 18:27 25.25603 51.62113 25 ft 0 kts 274°
2026-05-06 18:43 25.25581 51.62120 25 ft 13 kts 77°
2026-05-06 18:43 25.25563 51.62261 25 ft 26 kts 152°
2026-05-06 18:44 25.25421 51.62411 25 ft 35 kts 71°
2026-05-06 18:44 25.25469 51.62537 24 ft 0 kts 58°
2026-05-06 18:44 25.25509 51.62544 23 ft 0 kts 57°
2026-05-06 18:45 25.25513 51.62551 23 ft 7 kts 59°
2026-05-06 18:46 25.25661 51.62627 21 ft 29 kts 340°
2026-05-06 18:46 25.25954 51.62497 22 ft 65 kts 338°
2026-05-06 18:46 25.26428 51.62278 158 ft 76 kts 337°
2026-05-06 18:46 25.26938 51.62039 308 ft 82 kts 335°
2026-05-06 18:47 25.27488 51.61778 414 ft 87 kts 344°
2026-05-06 18:47 25.28072 51.61574 558 ft 87 kts 341°
2026-05-06 18:47 25.28665 51.61306 602 ft 97 kts 340°
2026-05-06 18:47 25.29244 51.61029 840 ft 84 kts 338°
2026-05-06 18:48 25.29836 51.60778 860 ft 94 kts 339°
2026-05-06 18:48 25.30349 51.60956 962 ft 108 kts 73°
2026-05-06 18:48 25.29942 51.61648 1079 ft 122 kts 144°
2026-05-06 18:48 25.29189 51.62186 1073 ft 134 kts 149°
2026-05-06 18:49 25.28399 51.62663 1242 ft 128 kts 155°
2026-05-06 18:49 25.27531 51.63029 1211 ft 135 kts 164°
2026-05-06 18:49 25.26597 51.63231 1136 ft 140 kts 175°
2026-05-06 18:49 25.25671 51.63407 1213 ft 129 kts 154°
2026-05-06 18:50 25.25153 51.63694 1293 ft 127 kts 154°
2026-05-06 18:50 25.24339 51.64083 1445 ft 109 kts 181°
2026-05-06 18:50 25.23853 51.63472 1047 ft 131 kts 276°
2026-05-06 18:50 25.24796 51.62941 686 ft 129 kts 355°
2026-05-06 18:51 25.25651 51.62646 197 ft 131 kts 336°
2026-05-06 18:51 25.26203 51.62396 41 ft 114 kts 339°
2026-05-06 18:51 25.26810 51.62137 24 ft 76 kts 340°
2026-05-06 18:51 25.27192 51.61945 21 ft 54 kts 332°
2026-05-06 18:52 25.27445 51.61748 23 ft 37 kts 308°